SCP
0 0 0 0 0 0 0 0 0 0 0 0 0 0 0 0 0 0 0 0 0 0 0 0 0 0 0
0 0 0 0 0 0 0 0 0 0 0 0 0 0 0 0 0 0 0 0 0 0 0 0 0 0 0
0 0 0 0 0 0 0 0 0 0 0 0 0 0 0 0 0 0 0 0 0 0 0 0 0 0 0
0 0 0 0 0 0 0 0 0 0 0 0 0 0 0 0 0 0 0 0 0 0 0 0 0 0 0
0 0 0 0 0 0 0 0 0 0 0 0 0 0 0 0 0 0 0 0 0 0 0 0 0 0 0
0 0 0 0 0 0 0 0 0 0 0 0 0 0 0 0 0 0 0 0 0 0 0 0 0 0 0
0 0 0 0 0 0 0 0 0 0 0 0 0 0 0 0 0 0 0 0 0 0 0 0 0 0 0
0 0 0 0 0 0 0 0 0 0 0 0 0 0 0 0 0 0 0 0 0 0 0 0 0 0 0
0 0 0 0 0 0 0 0 0 0 0 0 0 0 0 0 0 0 0 0 0 0 0 0 0 0 0
0 0 0 0 0 0 0 0 0 0 0 0 0 0 0 0 0 0 0 0 0 0 0 0 0 0 0
0 0 0 0 0 0 0 0 0 0 0 0 0 0 0 0 0 0 0 0 0 0 0 0 0 0 0
0 0 0 0 0 0 0 0 0 0 0 0 0 0 0 0 0 0 0 0 0 0 0 0 0 0 0
0 0 0 0 0 0 0 0 0 0 0 0 0 0 0 0 0 0 0 0 0 0 0 0 0 0 0
0 0 0 0 0 0 0 0 0 0 0 0 0 0 0 0 0 0 0 0 0 0 0 0 0 0 0
0 0 0 0 0 0 0 0 0 0 0 0 0 0 0 0 0 0 0 0 0 0 0 0 0 0 0
0 0 0 0 0 0 0 0 0 0 0 0 0 0 0 0 0 0 0 0 0 0 0 0 0 0 0
Wind_Speed_500mb
19 18 18 18 18 17 17 18 19 19 20 21 22 24 26 27 26 29 33 35 35 36 39 42 49 52 52
19 19 17 15 14 14 14 14 16 17 17 16 17 19 20 24 28 34 37 37 42 44 43 45 48 52 56
20 19 19 19 17 16 15 14 14 13 14 14 15 16 19 22 25 28 32 37 44 47 49 50 50 54 56
23 22 22 21 19 18 16 15 14 14 15 16 19 23 27 31 34 37 39 40 42 44 53 55 57 56 59
18 17 17 17 16 16 15 14 13 15 18 23 27 31 36 40 43 46 49 51 52 53 53 55 61 62 65
17 17 18 17 16 15 15 17 20 24 29 34 38 43 47 49 51 53 54 57 59 62 63 64 63 61 62
19 20 19 18 16 16 18 22 27 32 38 43 48 50 52 53 55 56 58 61 63 65 67 70 72 71 68
25 22 21 19 17 19 22 26 33 40 46 50 52 53 54 56 58 61 64 67 69 70 71 72 76 78 79
26 25 23 22 21 22 25 32 40 47 50 51 51 52 54 57 60 62 62 64 68 69 75 76 78 81 84
29 27 26 24 23 25 31 39 47 49 49 49 50 52 55 56 58 60 61 63 64 65 69 73 77 80 84
30 29 27 26 26 29 38 45 47 46 46 48 50 52 56 59 59 62 64 66 69 69 70 72 75 78 80
32 31 28 26 28 34 42 43 44 43 45 48 50 53 56 58 59 61 65 65 67 70 75 80 77 75 76
34 32 29 27 30 36 38 40 40 42 45 47 49 52 54 58 60 62 65 67 67 63 70 75 75 73 64
36 32 28 29 31 35 35 35 38 40 43 44 48 51 55 59 61 62 63 64 62 52 51 58 41 61 39
38 31 28 29 34 34 32 33 35 36 39 44 49 53 56 58 58 54 52 52 50 45 33 22 19 16 57
37 30 26 28 31 30 30 30 31 36 42 47 51 55 56 55 52 49 44 46 45 53 49 41 35 40 23
Wind_Direction_500mb
203 207 212 213 217 224 228 234 238 245 253 262 265 267 266 263 264 270 275 274 271 265 261 259 257 258 259
204 209 218 221 220 218 218 219 222 229 235 243 252 260 266 267 266 260 260 266 270 270 268 265 261 258 256
208 213 217 221 224 223 219 218 220 224 231 239 250 258 263 267 271 272 273 269 261 262 264 262 264 262 260
227 227 225 222 219 220 220 223 230 241 253 263 271 276 277 278 278 276 274 273 273 271 265 268 268 265 263
219 212 208 206 207 211 217 225 243 260 271 277 279 281 280 279 278 276 274 273 272 270 267 263 261 261 261
214 205 203 201 204 214 234 254 270 280 286 288 289 289 288 287 285 284 280 276 272 269 267 265 263 263 260
215 209 208 212 223 247 267 280 289 293 297 299 298 297 295 293 291 288 284 280 277 275 272 268 264 262 260
220 217 219 228 244 262 277 290 297 301 301 299 298 297 297 296 295 294 292 288 283 278 273 269 266 265 263
221 223 228 238 255 273 287 294 297 297 298 300 301 302 303 302 300 297 294 290 287 282 280 275 271 267 265
225 228 234 246 261 276 288 293 295 298 300 302 304 304 304 303 303 301 301 298 294 290 286 281 277 274 271
231 234 240 252 267 282 290 294 298 300 303 305 306 307 306 305 305 304 302 300 300 297 292 286 282 279 277
235 236 241 255 273 285 292 296 298 301 305 307 308 307 307 306 305 302 300 298 298 298 295 293 290 284 281
235 231 240 259 276 288 292 295 300 306 308 309 312 313 311 309 306 303 300 298 295 295 297 295 292 294 292
228 230 245 263 278 289 292 299 305 310 313 317 317 316 314 311 307 303 300 299 297 300 301 307 311 304 294
223 232 251 269 284 289 296 305 310 315 317 318 318 318 315 310 306 302 298 298 303 303 307 307 321 304 314
221 234 255 275 283 290 300 309 314 319 320 320 320 318 315 314 312 308 300 290 290 291 297 291 271 275 306
Wind_Speed_850mb
19 18 18 18 18 17 17 18 19 19 20 21 22 24 26 27 26 29 33 35 35 36 39 42 49 52 52
19 19 17 15 14 14 14 14 16 17 17 16 17 19 20 24 28 34 37 37 42 44 43 45 48 52 56
20 19 19 19 17 16 15 14 14 13 14 14 15 16 19 22 25 28 32 37 44 47 49 50 50 54 56
23 22 22 21 19 18 16 15 14 14 15 16 19 23 27 31 34 37 39 40 42 44 53 55 57 56 59
18 17 17 17 16 16 15 14 13 15 18 23 27 31 36 40 43 46 49 51 52 53 53 55 61 62 65
17 17 18 17 16 15 15 17 20 24 29 34 38 43 47 49 51 53 54 57 59 62 63 64 63 61 62
19 20 19 18 16 16 18 22 27 32 38 43 48 50 52 53 55 56 58 61 63 65 67 70 72 71 68
25 22 21 19 17 19 22 26 33 40 46 50 52 53 54 56 58 61 64 67 69 70 71 72 76 78 79
26 25 23 22 21 22 25 32 40 47 50 51 51 52 54 57 60 62 62 64 68 69 75 76 78 81 84
29 27 26 24 23 25 31 39 47 49 49 49 50 52 55 56 58 60 61 63 64 65 69 73 77 80 84
30 29 27 26 26 29 38 45 47 46 46 48 50 52 56 59 59 62 64 66 69 69 70 72 75 78 80
32 31 28 26 28 34 42 43 44 43 45 48 50 53 56 58 59 61 65 65 67 70 75 80 77 75 76
34 32 29 27 30 36 38 40 40 42 45 47 49 52 54 58 60 62 65 67 67 63 70 75 75 73 64
36 32 28 29 31 35 35 35 38 40 43 44 48 51 55 59 61 62 63 64 62 52 51 58 41 61 39
38 31 28 29 34 34 32 33 35 36 39 44 49 53 56 58 58 54 52 52 50 45 33 22 19 16 57
37 30 26 28 31 30 30 30 31 36 42 47 51 55 56 55 52 49 44 46 45 53 49 41 35 40 23
Wind_Direction_850mb
203 207 212 213 217 224 228 234 238 245 253 262 265 267 266 263 264 270 275 274 271 265 261 259 257 258 259
204 209 218 221 220 218 218 219 222 229 235 243 252 260 266 267 266 260 260 266 270 270 268 265 261 258 256
208 213 217 221 224 223 219 218 220 224 231 239 250 258 263 267 271 272 273 269 261 262 264 262 264 262 260
227 227 225 222 219 220 220 223 230 241 253 263 271 276 277 278 278 276 274 273 273 271 265 268 268 265 263
219 212 208 206 207 211 217 225 243 260 271 277 279 281 280 279 278 276 274 273 272 270 267 263 261 261 261
214 205 203 201 204 214 234 254 270 280 286 288 289 289 288 287 285 284 280 276 272 269 267 265 263 263 260
215 209 208 212 223 247 267 280 289 293 297 299 298 297 295 293 291 288 284 280 277 275 272 268 264 262 260
220 217 219 228 244 262 277 290 297 301 301 299 298 297 297 296 295 294 292 288 283 278 273 269 266 265 263
221 223 228 238 255 273 287 294 297 297 298 300 301 302 303 302 300 297 294 290 287 282 280 275 271 267 265
225 228 234 246 261 276 288 293 295 298 300 302 304 304 304 303 303 301 301 298 294 290 286 281 277 274 271
231 234 240 252 267 282 290 294 298 300 303 305 306 307 306 305 305 304 302 300 300 297 292 286 282 279 277
235 236 241 255 273 285 292 296 298 301 305 307 308 307 307 306 305 302 300 298 298 298 295 293 290 284 281
235 231 240 259 276 288 292 295 300 306 308 309 312 313 311 309 306 303 300 298 295 295 297 295 292 294 292
228 230 245 263 278 289 292 299 305 310 313 317 317 316 314 311 307 303 300 299 297 300 301 307 311 304 294
223 232 251 269 284 289 296 305 310 315 317 318 318 318 315 310 306 302 298 298 303 303 307 307 321 304 314
221 234 255 275 283 290 300 309 314 319 320 320 320 318 315 314 312 308 300 290 290 291 297 291 271 275 306